When you browse on this site, cookies collect data to enhance your experience and personalize the content and advertising you see.
Visit our Privacy Policy to learn more. By continuing to use the site, you agree to this use of cookies and data.
  • en France
  • Liste des pays
  • À 7 jours
  • Température de l'eau
  • Carte satellitaire
  • Carte météo
  • Widgets météo
  • user-avatar
    Se connecter

    Météo par heure à Mazari Sharif

    Ce jour, 24 Janvier, Jeudi

    Heure Température Précipitation Vent Pression Humidité
    00:00 -2°C° 0 mm 2 m/s 659 mmHg 42%
    01:00 -2°C° 0 mm 2 m/s 659 mmHg 42%
    02:00 -2°C° 0 mm 2 m/s 659 mmHg 43%
    03:00 -2°C° 0 mm 2 m/s 659 mmHg 43%
    04:00 0°C° 0 mm 1 m/s 660 mmHg 44%
    05:00 0°C° 0 mm 1 m/s 660 mmHg 44%
    06:00 -1°C° 0 mm 1 m/s 660 mmHg 44%
    07:00 -3°C° 0 mm 2 m/s 660 mmHg 44%
    08:00 +1°C° 0 mm 1 m/s 660 mmHg 40%
    09:00 +2°C° 0 mm 1 m/s 661 mmHg 36%
    10:00 +4°C° 0 mm 1 m/s 661 mmHg 31%
    11:00 +4°C° 0 mm 1 m/s 661 mmHg 31%
    12:00 +5°C° 0 mm 1 m/s 660 mmHg 30%
    13:00 +5°C° 0 mm 1 m/s 660 mmHg 29%
    14:00 +5°C° 0 mm 1 m/s 660 mmHg 32%
    15:00 +4°C° 0 mm 1 m/s 660 mmHg 35%
    16:00 +4°C° 0 mm 1 m/s 660 mmHg 38%
    17:00 +3°C° 0 mm 1 m/s 660 mmHg 40%
    18:00 +2°C° 0 mm 1 m/s 660 mmHg 42%
    19:00 -1°C° 0 mm 2 m/s 660 mmHg 44%
    20:00 -1°C° 0 mm 2 m/s 660 mmHg 43%
    21:00 -1°C° 0 mm 2 m/s 660 mmHg 43%
    22:00 -1°C° 0 mm 2 m/s 660 mmHg 42%
    23:00 -1°C° 0 mm 2 m/s 660 mmHg 42%

    Demain, 25 Janvier, Vendredi

    Heure Température Précipitation Vent Pression Humidité
    00:00 -2°C° 0 mm 2 m/s 659 mmHg 41%
    01:00 -2°C° 0 mm 2 m/s 659 mmHg 41%
    02:00 -2°C° 0 mm 2 m/s 659 mmHg 40%
    03:00 -2°C° 0 mm 2 m/s 659 mmHg 39%
    04:00 -2°C° 0 mm 2 m/s 658 mmHg 38%
    05:00 -2°C° 0 mm 2 m/s 658 mmHg 36%
    06:00 -2°C° 0 mm 2 m/s 658 mmHg 34%
    07:00 -3°C° 0 mm 2 m/s 658 mmHg 33%
    08:00 -1°C° 0 mm 2 m/s 659 mmHg 29%
    09:00 +2°C° 0 mm 2 m/s 659 mmHg 24%
    10:00 +5°C° 0 mm 1 m/s 659 mmHg 20%
    11:00 +5°C° 0 mm 1 m/s 658 mmHg 20%
    12:00 +5°C° 0 mm 2 m/s 658 mmHg 19%
    13:00 +5°C° 0 mm 2 m/s 657 mmHg 18%
    14:00 +5°C° 0 mm 2 m/s 657 mmHg 22%
    15:00 +4°C° 0 mm 2 m/s 657 mmHg 25%
    16:00 +4°C° 0 mm 2 m/s 657 mmHg 29%
    17:00 +3°C° 0 mm 2 m/s 657 mmHg 30%
    18:00 +2°C° 0 mm 2 m/s 657 mmHg 31%
    19:00 +1°C° 0 mm 2 m/s 658 mmHg 32%
    20:00 +1°C° 0 mm 2 m/s 658 mmHg 32%
    21:00 +1°C° 0 mm 2 m/s 657 mmHg 32%
    22:00 +1°C° 0 mm 2 m/s 657 mmHg 32%
    23:00 -1°C° 0 mm 2 m/s 657 mmHg 31%

    Après-demain, 26 Janvier, Samedi

    Heure Température Précipitation Vent Pression Humidité
    00:00 -1°C° 0 mm 2 m/s 657 mmHg 30%
    01:00 -1°C° 0 mm 2 m/s 657 mmHg 30%
    02:00 -1°C° 0 mm 2 m/s 657 mmHg 29%
    03:00 -1°C° 0 mm 2 m/s 657 mmHg 27%
    04:00 -1°C° 0 mm 2 m/s 657 mmHg 26%
    05:00 -1°C° 0 mm 2 m/s 657 mmHg 25%
    06:00 -1°C° 0 mm 2 m/s 657 mmHg 24%
    07:00 -1°C° 0 mm 2 m/s 657 mmHg 24%
    08:00 +2°C° 0 mm 2 m/s 658 mmHg 22%
    09:00 +4°C° 0 mm 2 m/s 658 mmHg 19%
    10:00 +5°C° 0 mm 2 m/s 658 mmHg 17%
    11:00 +6°C° 0 mm 2 m/s 658 mmHg 18%
    12:00 +7°C° 0 mm 2 m/s 658 mmHg 19%
    13:00 +7°C° 0 mm 2 m/s 657 mmHg 20%
    14:00 +7°C° 0 mm 2 m/s 657 mmHg 24%
    15:00 +6°C° 0 mm 2 m/s 657 mmHg 28%
    16:00 +6°C° 0 mm 2 m/s 657 mmHg 31%
    17:00 +5°C° 0 mm 2 m/s 657 mmHg 33%
    18:00 +5°C° 0 mm 1 m/s 657 mmHg 35%
    19:00 +5°C° 0 mm 1 m/s 658 mmHg 37%
    20:00 +5°C° 0 mm 1 m/s 658 mmHg 39%
    21:00 +4°C° 0 mm 1 m/s 658 mmHg 41%
    22:00 +3°C° 0 mm 2 m/s 658 mmHg 42%
    23:00 +3°C° 0 mm 2 m/s 658 mmHg 44%

    27 Janvier, Dimanche

    Heure Température Précipitation Vent Pression Humidité
    00:00 +3°C° 0 mm 2 m/s 658 mmHg 46%
    01:00 +3°C° 0 mm 2 m/s 658 mmHg 47%
    02:00 +3°C° 0 mm 2 m/s 658 mmHg 48%
    03:00 +3°C° 0 mm 2 m/s 658 mmHg 48%
    04:00 +2°C° 0 mm 3 m/s 658 mmHg 48%
    05:00 +2°C° 0 mm 3 m/s 659 mmHg 49%
    06:00 +2°C° 0 mm 3 m/s 659 mmHg 49%
    07:00 +1°C° 0 mm 3 m/s 660 mmHg 49%
    08:00 +3°C° 0 mm 3 m/s 660 mmHg 45%
    09:00 +5°C° 0 mm 2 m/s 660 mmHg 41%
    10:00 +7°C° 0 mm 2 m/s 660 mmHg 37%
    11:00 +8°C° 0 mm 2 m/s 660 mmHg 35%
    12:00 +8°C° 0 mm 2 m/s 659 mmHg 32%
    13:00 +9°C° 0 mm 2 m/s 659 mmHg 30%
    14:00 +8°C° 0 mm 2 m/s 659 mmHg 31%
    15:00 +8°C° 0 mm 2 m/s 658 mmHg 32%
    16:00 +8°C° 0 mm 2 m/s 658 mmHg 33%
    17:00 +7°C° 0 mm 2 m/s 658 mmHg 35%
    18:00 +6°C° 0 mm 2 m/s 659 mmHg 37%
    19:00 +5°C° 0 mm 2 m/s 659 mmHg 38%
    20:00 +4°C° 0 mm 3 m/s 659 mmHg 39%
    21:00 +4°C° 0 mm 3 m/s 659 mmHg 40%
    22:00 +3°C° 0 mm 3 m/s 659 mmHg 40%
    23:00 +3°C° 0 mm 3 m/s 659 mmHg 39%

    28 Janvier, Lundi

    Heure Température Précipitation Vent Pression Humidité
    00:00 +3°C° 0 mm 3 m/s 659 mmHg 38%
    01:00 +3°C° 0 mm 3 m/s 659 mmHg 36%
    02:00 +3°C° 0 mm 3 m/s 659 mmHg 35%
    03:00 +3°C° 0 mm 3 m/s 659 mmHg 33%
    04:00 +3°C° 0 mm 3 m/s 659 mmHg 32%
    05:00 +3°C° 0 mm 3 m/s 659 mmHg 32%
    06:00 +3°C° 0 mm 3 m/s 659 mmHg 31%
    07:00 +3°C° 0 mm 3 m/s 659 mmHg 30%
    08:00 +5°C° 0 mm 3 m/s 660 mmHg 28%
    09:00 +8°C° 0 mm 3 m/s 660 mmHg 26%
    10:00 +10°C° 0 mm 2 m/s 660 mmHg 24%
    11:00 +12°C° 0 mm 2 m/s 660 mmHg 23%
    12:00 +12°C° 0 mm 2 m/s 659 mmHg 22%
    13:00 +12°C° 0 mm 3 m/s 658 mmHg 22%
    14:00 +12°C° 0 mm 3 m/s 658 mmHg 23%
    15:00 +11°C° 0 mm 3 m/s 658 mmHg 25%
    16:00 +11°C° 0 mm 3 m/s 657 mmHg 26%
    17:00 +10°C° 0 mm 3 m/s 657 mmHg 28%
    18:00 +9°C° 0 mm 3 m/s 657 mmHg 30%
    19:00 +8°C° 0 mm 3 m/s 657 mmHg 32%
    20:00 +8°C° 0 mm 3 m/s 656 mmHg 32%
    21:00 +8°C° 0 mm 3 m/s 656 mmHg 31%
    22:00 +8°C° 0 mm 3 m/s 656 mmHg 31%
    23:00 +8°C° 0 mm 3 m/s 655 mmHg 32%

    29 Janvier, Mardi

    Heure Température Précipitation Vent Pression Humidité
    00:00 +8°C° 0 mm 2 m/s 655 mmHg 33%
    01:00 +8°C° 0 mm 2 m/s 655 mmHg 33%
    02:00 +8°C° 0.3 mm 2 m/s 655 mmHg 37%
    03:00 +8°C° 0.3 mm 2 m/s 654 mmHg 40%
    04:00 +8°C° 0.3 mm 2 m/s 654 mmHg 43%
    05:00 +8°C° 0.4 mm 2 m/s 654 mmHg 47%
    06:00 +8°C° 0.4 mm 3 m/s 654 mmHg 50%
    07:00 +8°C° 0.4 mm 3 m/s 654 mmHg 53%
    08:00 +9°C° 0.8 mm 3 m/s 654 mmHg 55%
    09:00 +9°C° 0.8 mm 3 m/s 654 mmHg 57%
    10:00 +10°C° 0.8 mm 3 m/s 654 mmHg 58%
    11:00 +11°C° 0.6 mm 3 m/s 654 mmHg 57%
    12:00 +12°C° 0.6 mm 2 m/s 653 mmHg 57%
    13:00 +13°C° 0.6 mm 2 m/s 653 mmHg 56%
    14:00 +12°C° 0.6 mm 2 m/s 653 mmHg 58%
    15:00 +12°C° 0.6 mm 2 m/s 652 mmHg 60%
    16:00 +12°C° 0.6 mm 2 m/s 652 mmHg 62%
    17:00 +10°C° 0.8 mm 2 m/s 652 mmHg 65%
    18:00 +10°C° 0.8 mm 2 m/s 652 mmHg 68%
    19:00 +9°C° 0.8 mm 2 m/s 651 mmHg 70%
    20:00 +9°C° 0.2 mm 2 m/s 651 mmHg 68%
    21:00 +9°C° 0.2 mm 3 m/s 651 mmHg 65%
    22:00 +9°C° 0.2 mm 3 m/s 650 mmHg 63%
    23:00 +8°C° 0.5 mm 4 m/s 650 mmHg 66%
    Voir plus